| time (UTC) | temp F | wind direction | speed MPH | gust MPH | rain 1hr in | rain 24hr in | rain mn in | humidity % | barometer mb |
| 20260509124459 | 0 | 0.0 | 0.0 | 0.00 | 0.00 | 0.00 | 1011.4 | ||
| 20260509123458 | 0 | 0.0 | 0.0 | 0.00 | 0.00 | 0.00 | 1011.5 | ||
| 20260509122959 | 0 | 0.0 | 0.0 | 0.00 | 0.00 | 0.00 | 1011.5 | ||
| 20260509122458 | 0 | 0.0 | 0.0 | 0.00 | 0.00 | 0.00 | 1011.4 | ||
| 20260509121958 | 0 | 0.0 | 0.0 | 0.00 | 0.00 | 0.00 | 1011.5 | ||
| 20260509121459 | 0 | 0.0 | 0.0 | 0.00 | 0.00 | 0.00 | 1011.6 | ||
| 20260509120958 | 0 | 0.0 | 0.0 | 0.00 | 0.00 | 0.00 | 1011.7 | ||
| 20260509120458 | 0 | 0.0 | 0.0 | 0.00 | 0.00 | 0.00 | 1011.8 | ||
| 20260509115959 | 0 | 0.0 | 0.0 | 0.00 | 0.00 | 0.00 | 1011.7 | ||
| 20260509115458 | 0 | 0.0 | 0.0 | 0.00 | 0.00 | 0.00 | 1011.7 | ||
| 20260509114958 | 0 | 0.0 | 0.0 | 0.00 | 0.00 | 0.00 | 1011.6 | ||
| 20260509114459 | 0 | 0.0 | 0.0 | 0.00 | 0.00 | 0.00 | 1011.6 | ||
| 20260509112959 | 0 | 0.0 | 0.0 | 0.00 | 0.00 | 0.00 | 1011.4 | ||
| 20260509112458 | 0 | 0.0 | 0.0 | 0.00 | 0.00 | 0.00 | 1011.5 | ||
| 20260509111958 | 0 | 0.0 | 0.0 | 0.00 | 0.00 | 0.00 | 1011.3 | ||
| 20260509111459 | 0 | 0.0 | 0.0 | 0.00 | 0.00 | 0.00 | 1011.2 | ||
| 20260509110958 | 0 | 0.0 | 0.0 | 0.00 | 0.00 | 0.00 | 1011.3 | ||
| 20260509110458 | 0 | 0.0 | 0.0 | 0.00 | 0.00 | 0.00 | 1011.3 | ||
| 20260509105959 | 0 | 0.0 | 0.0 | 0.00 | 0.00 | 0.00 | 1011.1 | ||
| 20260509104958 | 0 | 0.0 | 0.0 | 0.00 | 0.00 | 0.00 | 1011.2 | ||
| 20260509104459 | 0 | 0.0 | 0.0 | 0.00 | 0.00 | 0.00 | 1011.3 | ||
| 20260509103958 | 0 | 0.0 | 0.0 | 0.00 | 0.00 | 0.00 | 1011.3 | ||
| 20260509103458 | 0 | 0.0 | 0.0 | 0.00 | 0.00 | 0.00 | 1011.3 | ||
| 20260509102959 | 0 | 0.0 | 0.0 | 0.00 | 0.00 | 0.00 | 1011.0 | ||
| 20260509102459 | 0 | 0.0 | 0.0 | 0.00 | 0.00 | 0.00 | 1011.0 | ||
| 20260509101958 | 0 | 0.0 | 0.0 | 0.00 | 0.00 | 0.00 | 1011.1 | ||
| 20260509101459 | 0 | 0.0 | 0.0 | 0.00 | 0.00 | 0.00 | 1011.0 | ||
| 20260509100958 | 0 | 0.0 | 0.0 | 0.00 | 0.00 | 0.00 | 1011.1 | ||
| 20260509100458 | 48 | 316 | 0.0 | 3.0 | 0.00 | 0.00 | 0.00 | 90 | 1011.0 |
| 20260509095959 | 48 | 316 | 0.0 | 3.0 | 0.00 | 0.00 | 0.00 | 90 | 1011.0 |
| 20260509094958 | 48 | 315 | 1.0 | 3.0 | 0.00 | 0.00 | 0.00 | 90 | 1011.0 |
| 20260509094459 | 48 | 315 | 0.0 | 2.0 | 0.00 | 0.00 | 0.00 | 90 | 1011.2 |
| 20260509093958 | 48 | 315 | 0.0 | 2.0 | 0.00 | 0.00 | 0.00 | 89 | 1011.2 |
| 20260509093458 | 48 | 315 | 0.0 | 2.0 | 0.00 | 0.00 | 0.00 | 89 | 1011.0 |
| 20260509092959 | 48 | 313 | 0.0 | 0.0 | 0.00 | 0.00 | 0.00 | 88 | 1011.2 |
| 20260509092458 | 48 | 313 | 0.0 | 0.0 | 0.00 | 0.00 | 0.00 | 88 | 1011.4 |
| 20260509091958 | 48 | 313 | 1.0 | 2.0 | 0.00 | 0.00 | 0.00 | 87 | 1011.4 |
| 20260509091459 | 48 | 313 | 1.0 | 3.0 | 0.00 | 0.00 | 0.00 | 88 | 1011.5 |
| 20260509090958 | 48 | 313 | 2.0 | 3.0 | 0.00 | 0.00 | 0.00 | 88 | 1011.4 |
| 20260509090458 | 48 | 313 | 2.0 | 3.0 | 0.00 | 0.00 | 0.00 | 88 | 1011.4 |
| 20260509085959 | 48 | 313 | 2.0 | 3.0 | 0.00 | 0.00 | 0.00 | 88 | 1011.3 |
| 20260509085458 | 48 | 313 | 2.0 | 3.0 | 0.00 | 0.00 | 0.00 | 88 | 1011.5 |
| 20260509084958 | 48 | 313 | 0.0 | 3.0 | 0.00 | 0.00 | 0.00 | 88 | 1011.4 |
| 20260509084459 | 48 | 313 | 0.0 | 0.0 | 0.00 | 0.00 | 0.00 | 87 | 1011.4 |
| 20260509083958 | 48 | 313 | 0.0 | 0.0 | 0.00 | 0.00 | 0.00 | 87 | 1011.5 |
| 20260509083458 | 48 | 313 | 0.0 | 0.0 | 0.00 | 0.00 | 0.00 | 87 | 1011.6 |
| 20260509082458 | 48 | 313 | 0.0 | 0.0 | 0.00 | 0.00 | 0.00 | 86 | 1011.8 |
| 20260509081958 | 48 | 313 | 0.0 | 0.0 | 0.00 | 0.00 | 0.00 | 86 | 1011.8 |
| 20260509081459 | 49 | 313 | 0.0 | 0.0 | 0.00 | 0.00 | 0.00 | 85 | 1011.7 |
| 20260509080458 | 49 | 313 | 0.0 | 0.0 | 0.00 | 0.00 | 0.00 | 84 | 1011.9 |
| 20260509075959 | 49 | 313 | 0.0 | 0.0 | 0.00 | 0.00 | 0.00 | 84 | 1011.9 |
| 20260509075458 | 49 | 313 | 0.0 | 0.0 | 0.00 | 0.00 | 0.00 | 84 | 1012.0 |
| 20260509074958 | 49 | 313 | 0.0 | 0.0 | 0.00 | 0.00 | 0.00 | 83 | 1011.9 |
| 20260509074459 | 49 | 313 | 0.0 | 0.0 | 0.00 | 0.00 | 0.00 | 83 | 1011.9 |
| 20260509073958 | 49 | 313 | 0.0 | 0.0 | 0.00 | 0.00 | 0.00 | 83 | 1011.8 |
| 20260509073458 | 49 | 313 | 0.0 | 0.0 | 0.00 | 0.00 | 0.00 | 84 | 1011.8 |
| 20260509072959 | 49 | 313 | 1.0 | 3.0 | 0.00 | 0.00 | 0.00 | 84 | 1011.8 |
| 20260509072458 | 49 | 313 | 3.0 | 4.0 | 0.00 | 0.00 | 0.00 | 84 | 1011.7 |
| 20260509071958 | 49 | 313 | 3.0 | 4.0 | 0.00 | 0.00 | 0.00 | 84 | 1011.7 |
| 20260509071459 | 49 | 313 | 3.0 | 4.0 | 0.00 | 0.00 | 0.00 | 84 | 1011.7 |
| 20260509070458 | 50 | 334 | 0.0 | 4.0 | 0.00 | 0.00 | 0.00 | 83 | 1011.7 |
| 20260509065959 | 50 | 347 | 0.0 | 0.0 | 0.00 | 0.00 | 0.00 | 82 | 1011.7 |
| 20260509065458 | 51 | 347 | 0.0 | 0.0 | 0.00 | 0.00 | 0.00 | 81 | 1011.8 |
| 20260509064958 | 51 | 347 | 0.0 | 0.0 | 0.00 | 0.00 | 0.00 | 81 | 1011.8 |
| 20260509064459 | 51 | 347 | 0.0 | 0.0 | 0.00 | 0.00 | 0.00 | 81 | 1011.9 |
| 20260509063958 | 51 | 350 | 0.0 | 0.0 | 0.00 | 0.00 | 0.00 | 82 | 1011.9 |
| 20260509063458 | 51 | 321 | 0.0 | 0.0 | 0.00 | 0.00 | 0.00 | 82 | 1011.9 |
| 20260509062959 | 51 | 321 | 0.0 | 0.0 | 0.00 | 0.00 | 0.00 | 81 | 1012.0 |
| 20260509062458 | 51 | 321 | 0.0 | 0.0 | 0.00 | 0.00 | 0.00 | 80 | 1011.9 |
| 20260509061958 | 52 | 321 | 0.0 | 0.0 | 0.00 | 0.00 | 0.00 | 79 | 1012.0 |
| 20260509061459 | 52 | 321 | 0.0 | 0.0 | 0.00 | 0.00 | 0.00 | 79 | 1012.1 |
| 20260509060958 | 52 | 321 | 0.0 | 0.0 | 0.00 | 0.00 | 0.00 | 79 | 1012.2 |
| 20260509055959 | 52 | 321 | 1.0 | 2.0 | 0.00 | 0.00 | 0.00 | 78 | 1012.2 |
| 20260509055458 | 52 | 321 | 1.0 | 2.0 | 0.00 | 0.00 | 0.00 | 78 | 1012.3 |
| 20260509054958 | 52 | 322 | 0.0 | 2.0 | 0.00 | 0.00 | 0.00 | 78 | 1012.3 |
| 20260509054459 | 52 | 322 | 1.0 | 4.0 | 0.00 | 0.00 | 0.00 | 77 | 1012.2 |
| 20260509053958 | 52 | 322 | 2.0 | 5.0 | 0.00 | 0.00 | 0.00 | 77 | 1012.3 |
| 20260509053458 | 52 | 327 | 3.0 | 5.0 | 0.00 | 0.00 | 0.00 | 78 | 1012.2 |
| 20260509051959 | 52 | 328 | 2.0 | 6.0 | 0.00 | 0.00 | 0.00 | 77 | 1012.3 |
| 20260509051500 | 53 | 340 | 2.0 | 4.0 | 0.00 | 0.00 | 0.00 | 76 | 1012.2 |
| 20260509050958 | 53 | 340 | 2.0 | 4.0 | 0.00 | 0.00 | 0.00 | 76 | 1012.3 |
| 20260509050458 | 53 | 347 | 3.0 | 4.0 | 0.00 | 0.00 | 0.00 | 76 | 1012.3 |
| 20260509045959 | 53 | 342 | 3.0 | 4.0 | 0.00 | 0.00 | 0.00 | 75 | 1012.3 |
| 20260509044958 | 54 | 211 | 0.0 | 4.0 | 0.00 | 0.00 | 0.00 | 73 | 1012.5 |
| 20260509044459 | 54 | 211 | 1.0 | 3.0 | 0.00 | 0.00 | 0.00 | 72 | 1012.6 |
| 20260509043958 | 54 | 211 | 2.0 | 3.0 | 0.00 | 0.00 | 0.00 | 71 | 1012.6 |
| 20260509043458 | 54 | 211 | 2.0 | 5.0 | 0.00 | 0.00 | 0.00 | 72 | 1012.7 |
| 20260509042959 | 54 | 211 | 3.0 | 5.0 | 0.00 | 0.00 | 0.00 | 72 | 1012.8 |
| 20260509042458 | 53 | 196 | 3.0 | 5.0 | 0.00 | 0.00 | 0.00 | 73 | 1013.0 |
| 20260509041958 | 53 | 189 | 3.0 | 5.0 | 0.00 | 0.00 | 0.00 | 74 | 1013.1 |
| 20260509041459 | 53 | 198 | 3.0 | 6.0 | 0.00 | 0.00 | 0.00 | 75 | 1013.0 |
| 20260509040958 | 52 | 201 | 4.0 | 5.0 | 0.00 | 0.00 | 0.00 | 76 | 1013.0 |
| 20260509040458 | 52 | 209 | 4.0 | 6.0 | 0.00 | 0.00 | 0.00 | 77 | 1013.1 |
| 20260509035959 | 52 | 209 | 4.0 | 8.0 | 0.00 | 0.00 | 0.00 | 79 | 1013.1 |
| 20260509035458 | 51 | 209 | 3.0 | 8.0 | 0.00 | 0.00 | 0.00 | 80 | 1013.2 |
| 20260509034459 | 51 | 265 | 0.0 | 0.0 | 0.00 | 0.00 | 0.00 | 81 | 1012.4 |
| 20260509033958 | 51 | 265 | 0.0 | 0.0 | 0.00 | 0.00 | 0.00 | 81 | 1012.5 |
| 20260509033458 | 51 | 265 | 0.0 | 0.0 | 0.00 | 0.00 | 0.00 | 82 | 1012.6 |
| 20260509032959 | 51 | 265 | 0.0 | 0.0 | 0.00 | 0.00 | 0.00 | 81 | 1012.5 |
| 20260509031958 | 51 | 267 | 0.0 | 0.0 | 0.00 | 0.00 | 0.00 | 81 | 1012.7 |
| 20260509030958 | 51 | 267 | 0.0 | 0.0 | 0.00 | 0.00 | 0.00 | 80 | 1012.7 |
| 20260509025959 | 52 | 267 | 0.0 | 0.0 | 0.00 | 0.00 | 0.00 | 77 | 1012.6 |
| 20260509025458 | 52 | 267 | 0.0 | 0.0 | 0.00 | 0.00 | 0.00 | 77 | 1012.6 |
| 20260509024459 | 52 | 267 | 0.0 | 0.0 | 0.00 | 0.00 | 0.00 | 76 | 1012.6 |
| 20260509023958 | 53 | 267 | 0.0 | 0.0 | 0.00 | 0.00 | 0.00 | 75 | 1012.6 |
| 20260509023458 | 53 | 267 | 0.0 | 0.0 | 0.00 | 0.00 | 0.00 | 75 | 1012.7 |
| 20260509022959 | 53 | 267 | 0.0 | 0.0 | 0.00 | 0.00 | 0.00 | 73 | 1012.8 |
| 20260509022458 | 53 | 267 | 0.0 | 0.0 | 0.00 | 0.00 | 0.00 | 74 | 1012.8 |
| 20260509021958 | 53 | 267 | 0.0 | 0.0 | 0.00 | 0.00 | 0.00 | 75 | 1012.9 |
| 20260509021459 | 53 | 268 | 0.0 | 0.0 | 0.00 | 0.00 | 0.00 | 74 | 1012.9 |
| 20260509020958 | 53 | 268 | 0.0 | 0.0 | 0.00 | 0.00 | 0.00 | 72 | 1012.8 |
| 20260509020458 | 53 | 268 | 0.0 | 0.0 | 0.00 | 0.00 | 0.00 | 71 | 1012.8 |
| 20260509015959 | 53 | 268 | 0.0 | 0.0 | 0.00 | 0.00 | 0.00 | 70 | 1012.7 |
| 20260509015458 | 54 | 268 | 0.0 | 0.0 | 0.00 | 0.00 | 0.00 | 70 | 1012.7 |
| 20260509014459 | 55 | 268 | 0.0 | 0.0 | 0.00 | 0.00 | 0.00 | 68 | 1012.6 |
| 20260509013958 | 55 | 268 | 0.0 | 0.0 | 0.00 | 0.00 | 0.00 | 67 | 1012.5 |
| 20260509013458 | 56 | 268 | 0.0 | 0.0 | 0.00 | 0.00 | 0.00 | 66 | 1012.4 |
| 20260509012959 | 56 | 268 | 0.0 | 0.0 | 0.00 | 0.00 | 0.00 | 65 | 1012.4 |
| 20260509012458 | 56 | 268 | 0.0 | 0.0 | 0.00 | 0.00 | 0.00 | 64 | 1012.2 |
| 20260509011459 | 57 | 268 | 0.0 | 0.0 | 0.00 | 0.00 | 0.00 | 64 | 1012.1 |
| 20260509010958 | 57 | 268 | 0.0 | 0.0 | 0.00 | 0.00 | 0.00 | 63 | 1012.0 |
| 20260509010458 | 57 | 271 | 2.0 | 7.0 | 0.00 | 0.00 | 0.00 | 63 | 1011.9 |
| 20260509005458 | 58 | 311 | 3.0 | 8.0 | 0.00 | 0.00 | 0.00 | 63 | 1011.9 |
| 20260509004459 | 58 | 298 | 3.0 | 6.0 | 0.00 | 0.00 | 0.00 | 62 | 1011.7 |
| 20260509003958 | 58 | 309 | 2.0 | 4.0 | 0.00 | 0.00 | 0.00 | 61 | 1011.7 |
| 20260509003458 | 58 | 282 | 3.0 | 7.0 | 0.00 | 0.00 | 0.00 | 61 | 1011.6 |
| 20260509002959 | 58 | 286 | 5.0 | 8.0 | 0.00 | 0.00 | 0.00 | 60 | 1011.5 |
| 20260509002458 | 58 | 292 | 4.0 | 8.0 | 0.00 | 0.00 | 0.00 | 60 | 1011.5 |
| 20260509001958 | 58 | 294 | 3.0 | 7.0 | 0.00 | 0.00 | 0.00 | 62 | 1011.4 |
| 20260509000958 | 57 | 253 | 3.0 | 6.0 | 0.00 | 0.00 | 0.00 | 65 | 1011.3 |
| 20260509000458 | 57 | 254 | 1.0 | 6.0 | 0.00 | 0.00 | 0.00 | 67 | 1011.3 |
| 20260508235959 | 56 | 264 | 0.0 | 6.0 | 0.00 | 0.00 | 0.00 | 66 | 1011.3 |
| 20260508235458 | 57 | 330 | 0.0 | 0.0 | 0.00 | 0.00 | 0.00 | 69 | 1011.2 |
| 20260508234958 | 57 | 330 | 0.0 | 0.0 | 0.00 | 0.00 | 0.00 | 71 | 1011.1 |
| 20260508233958 | 58 | 330 | 0.0 | 0.0 | 0.00 | 0.00 | 0.00 | 66 | 1010.9 |
| 20260508233458 | 58 | 330 | 0.0 | 0.0 | 0.00 | 0.00 | 0.00 | 68 | 1010.9 |
| 20260508232458 | 58 | 330 | 0.0 | 0.0 | 0.00 | 0.00 | 0.00 | 65 | 1010.9 |
| 20260508231958 | 58 | 330 | 0.0 | 0.0 | 0.00 | 0.00 | 0.00 | 66 | 1010.9 |
| 20260508231459 | 59 | 330 | 0.0 | 0.0 | 0.00 | 0.00 | 0.00 | 66 | 1010.8 |
| 20260508230958 | 59 | 330 | 0.0 | 0.0 | 0.00 | 0.00 | 0.00 | 63 | 1010.8 |
| 20260508225959 | 59 | 50 | 0.0 | 0.0 | 0.00 | 0.00 | 0.00 | 63 | 1010.7 |
| 20260508225458 | 59 | 50 | 0.0 | 0.0 | 0.00 | 0.00 | 0.00 | 59 | 1010.7 |
| 20260508224958 | 59 | 50 | 0.0 | 0.0 | 0.00 | 0.00 | 0.00 | 59 | 1010.9 |
| 20260508223958 | 59 | 50 | 0.0 | 0.0 | 0.00 | 0.00 | 0.00 | 59 | 1010.7 |
| 20260508223458 | 60 | 50 | 0.0 | 0.0 | 0.00 | 0.00 | 0.00 | 60 | 1010.8 |
| 20260508222959 | 60 | 50 | 0.0 | 2.0 | 0.00 | 0.00 | 0.00 | 60 | 1010.7 |
| 20260508221958 | 60 | 50 | 2.0 | 4.0 | 0.00 | 0.00 | 0.00 | 57 | 1010.7 |
| 20260508221459 | 60 | 50 | 2.0 | 4.0 | 0.00 | 0.00 | 0.00 | 58 | 1010.8 |
| 20260508220958 | 60 | 50 | 2.0 | 4.0 | 0.00 | 0.00 | 0.00 | 56 | 1010.7 |
| 20260508220458 | 60 | 50 | 3.0 | 5.0 | 0.00 | 0.00 | 0.00 | 57 | 1010.8 |
| 20260508215458 | 60 | 50 | 3.0 | 6.0 | 0.00 | 0.00 | 0.00 | 56 | 1010.8 |
| 20260508214958 | 60 | 50 | 4.0 | 8.0 | 0.00 | 0.00 | 0.00 | 58 | 1010.9 |
| 20260508214459 | 60 | 50 | 4.0 | 8.0 | 0.00 | 0.00 | 0.00 | 56 | 1011.0 |
| 20260508213958 | 60 | 50 | 3.0 | 8.0 | 0.00 | 0.00 | 0.00 | 57 | 1011.0 |
| 20260508212959 | 60 | 50 | 5.0 | 11.0 | 0.00 | 0.00 | 0.00 | 57 | 1011.0 |
| 20260508212458 | 60 | 50 | 6.0 | 11.0 | 0.00 | 0.00 | 0.00 | 55 | 1010.9 |
| 20260508211958 | 60 | 50 | 7.0 | 11.0 | 0.00 | 0.00 | 0.00 | 56 | 1011.0 |
| 20260508211459 | 60 | 50 | 5.0 | 10.0 | 0.00 | 0.00 | 0.00 | 55 | 1010.9 |
| 20260508210958 | 60 | 50 | 4.0 | 11.0 | 0.00 | 0.00 | 0.00 | 56 | 1011.0 |
| 20260508210458 | 60 | 50 | 5.0 | 12.0 | 0.00 | 0.00 | 0.00 | 56 | 1010.9 |
| 20260508205959 | 60 | 50 | 5.0 | 12.0 | 0.00 | 0.00 | 0.00 | 56 | 1010.8 |
| 20260508203958 | 60 | 50 | 3.0 | 8.0 | 0.00 | 0.00 | 0.00 | 58 | 1011.0 |
| 20260508203458 | 59 | 50 | 3.0 | 8.0 | 0.00 | 0.00 | 0.00 | 57 | 1011.1 |
| 20260508202959 | 59 | 50 | 4.0 | 8.0 | 0.00 | 0.00 | 0.00 | 59 | 1011.2 |
| 20260508201958 | 58 | 50 | 3.0 | 8.0 | 0.00 | 0.00 | 0.00 | 59 | 1011.3 |
| 20260508201459 | 59 | 50 | 4.0 | 10.0 | 0.00 | 0.00 | 0.00 | 58 | 1011.4 |
| 20260508200958 | 59 | 50 | 5.0 | 10.0 | 0.00 | 0.00 | 0.00 | 60 | 1011.4 |
| 20260508200458 | 59 | 50 | 5.0 | 9.0 | 0.00 | 0.00 | 0.00 | 58 | 1011.4 |
| 20260508195959 | 59 | 50 | 4.0 | 8.0 | 0.00 | 0.00 | 0.00 | 60 | 1011.4 |
| 20260508195458 | 58 | 50 | 4.0 | 8.0 | 0.00 | 0.00 | 0.00 | 61 | 1011.6 |
| 20260508194958 | 58 | 50 | 3.0 | 6.0 | 0.00 | 0.00 | 0.00 | 60 | 1011.7 |
| 20260508194458 | 58 | 50 | 4.0 | 6.0 | 0.00 | 0.00 | 0.00 | 59 | 1011.8 |
| 20260508193958 | 58 | 50 | 5.0 | 13.0 | 0.00 | 0.00 | 0.00 | 60 | 1011.7 |
| 20260508193458 | 58 | 50 | 5.0 | 13.0 | 0.00 | 0.00 | 0.00 | 60 | 1011.8 |
| 20260508192959 | 58 | 50 | 5.0 | 11.0 | 0.00 | 0.00 | 0.00 | 64 | 1011.7 |
| 20260508192458 | 58 | 50 | 6.0 | 12.0 | 0.00 | 0.00 | 0.00 | 60 | 1011.7 |
| 20260508191958 | 58 | 50 | 6.0 | 12.0 | 0.00 | 0.00 | 0.00 | 65 | 1011.7 |
| 20260508191459 | 57 | 355 | 6.0 | 11.0 | 0.00 | 0.00 | 0.00 | 68 | 1011.7 |
| 20260508190458 | 55 | 342 | 7.0 | 14.0 | 0.00 | 0.00 | 0.00 | 68 | 1012.1 |
| 20260508185958 | 55 | 338 | 8.0 | 17.0 | 0.00 | 0.00 | 0.00 | 65 | 1012.2 |
| 20260508185458 | 56 | 282 | 9.0 | 18.0 | 0.00 | 0.00 | 0.00 | 62 | 1012.1 |
| 20260508184958 | 57 | 252 | 9.0 | 18.0 | 0.00 | 0.00 | 0.00 | 60 | 1012.0 |
| 20260508184459 | 58 | 290 | 7.0 | 18.0 | 0.00 | 0.00 | 0.00 | 57 | 1012.1 |
| 20260508183958 | 59 | 293 | 7.0 | 15.0 | 0.00 | 0.00 | 0.00 | 53 | 1011.8 |
| 20260508183458 | 59 | 278 | 9.0 | 16.0 | 0.00 | 0.00 | 0.00 | 51 | 1011.7 |
| 20260508182959 | 59 | 50 | 8.0 | 16.0 | 0.00 | 0.00 | 0.00 | 51 | 1011.6 |
| 20260508182458 | 60 | 300 | 7.0 | 14.0 | 0.00 | 0.00 | 0.00 | 52 | 1011.5 |
| 20260508181958 | 60 | 275 | 8.0 | 14.0 | 0.00 | 0.00 | 0.00 | 53 | 1011.5 |
| 20260508181459 | 59 | 261 | 7.0 | 14.0 | 0.00 | 0.00 | 0.00 | 52 | 1011.5 |
| 20260508180958 | 59 | 292 | 8.0 | 14.0 | 0.00 | 0.00 | 0.00 | 57 | 1011.6 |
| 20260508180458 | 58 | 248 | 10.0 | 19.0 | 0.00 | 0.00 | 0.00 | 54 | 1011.8 |
| 20260508175959 | 58 | 50 | 10.0 | 19.0 | 0.00 | 0.00 | 0.00 | 53 | 1011.6 |
| 20260508175458 | 58 | 50 | 9.0 | 15.0 | 0.00 | 0.00 | 0.00 | 52 | 1011.6 |
| 20260508174958 | 58 | 50 | 9.0 | 14.0 | 0.00 | 0.00 | 0.00 | 53 | 1011.6 |
| 20260508174500 | 58 | 50 | 11.0 | 20.0 | 0.00 | 0.00 | 0.00 | 52 | 1011.6 |
| 20260508173958 | 59 | 50 | 13.0 | 24.0 | 0.00 | 0.00 | 0.00 | 51 | 1011.7 |
| 20260508173459 | 59 | 50 | 13.0 | 24.0 | 0.00 | 0.00 | 0.00 | 50 | 1011.7 |
| 20260508172959 | 60 | 50 | 12.0 | 21.0 | 0.00 | 0.00 | 0.00 | 52 | 1011.5 |
| 20260508171958 | 60 | 50 | 11.0 | 21.0 | 0.00 | 0.00 | 0.00 | 50 | 1011.7 |
| 20260508171458 | 60 | 50 | 11.0 | 21.0 | 0.00 | 0.00 | 0.00 | 51 | 1011.7 |
| 20260508165959 | 58 | 50 | 11.0 | 22.0 | 0.00 | 0.00 | 0.00 | 54 | 1012.1 |
| 20260508165458 | 58 | 50 | 11.0 | 22.0 | 0.00 | 0.00 | 0.00 | 51 | 1012.2 |
| 20260508164958 | 59 | 50 | 9.0 | 22.0 | 0.00 | 0.00 | 0.00 | 54 | 1012.2 |
| 20260508164459 | 59 | 50 | 11.0 | 19.0 | 0.00 | 0.00 | 0.00 | 55 | 1012.2 |
| 20260508163958 | 58 | 50 | 13.0 | 21.0 | 0.00 | 0.00 | 0.00 | 54 | 1012.4 |
| 20260508162959 | 58 | 50 | 11.0 | 21.0 | 0.00 | 0.00 | 0.00 | 52 | 1012.4 |
| 20260508162458 | 58 | 257 | 11.0 | 20.0 | 0.00 | 0.00 | 0.00 | 55 | 1012.4 |
| 20260508161958 | 57 | 214 | 12.0 | 20.0 | 0.00 | 0.00 | 0.00 | 53 | 1012.6 |
| 20260508161459 | 57 | 50 | 10.0 | 20.0 | 0.00 | 0.00 | 0.00 | 53 | 1012.6 |
| 20260508160958 | 58 | 197 | 8.0 | 17.0 | 0.00 | 0.00 | 0.00 | 54 | 1012.7 |
| 20260508155959 | 57 | 213 | 9.0 | 14.0 | 0.00 | 0.00 | 0.00 | 58 | 1012.8 |
| 20260508155458 | 57 | 164 | 7.0 | 13.0 | 0.00 | 0.00 | 0.00 | 58 | 1012.7 |
| 20260508154958 | 56 | 184 | 7.0 | 16.0 | 0.00 | 0.00 | 0.00 | 59 | 1012.7 |
| 20260508154459 | 56 | 224 | 9.0 | 16.0 | 0.00 | 0.00 | 0.00 | 59 | 1012.7 |
| 20260508153458 | 55 | 217 | 8.0 | 15.0 | 0.00 | 0.00 | 0.00 | 62 | 1013.1 |
| 20260508152958 | 55 | 248 | 8.0 | 15.0 | 0.00 | 0.00 | 0.00 | 58 | 1013.1 |
| 20260508152458 | 54 | 215 | 8.0 | 15.0 | 0.00 | 0.00 | 0.00 | 64 | 1013.2 |
| 20260508151958 | 54 | 190 | 7.0 | 13.0 | 0.00 | 0.00 | 0.00 | 62 | 1013.3 |
| 20260508151459 | 54 | 257 | 8.0 | 15.0 | 0.00 | 0.00 | 0.00 | 65 | 1013.4 |
| 20260508150958 | 53 | 248 | 8.0 | 15.0 | 0.00 | 0.00 | 0.00 | 64 | 1013.5 |
| 20260508145959 | 52 | 265 | 5.0 | 11.0 | 0.00 | 0.00 | 0.00 | 67 | 1013.5 |
| 20260508145458 | 51 | 265 | 6.0 | 14.0 | 0.00 | 0.00 | 0.00 | 69 | 1013.6 |
| 20260508144958 | 51 | 270 | 7.0 | 14.0 | 0.00 | 0.00 | 0.00 | 67 | 1013.6 |
| 20260508144459 | 51 | 251 | 8.0 | 11.0 | 0.00 | 0.00 | 0.00 | 68 | 1013.7 |
| 20260508143957 | 50 | 248 | 8.0 | 11.0 | 0.00 | 0.00 | 0.00 | 68 | 1013.8 |
| 20260508143458 | 50 | 252 | 8.0 | 15.0 | 0.00 | 0.00 | 0.00 | 68 | 1013.9 |
| 20260508142959 | 50 | 232 | 8.0 | 15.0 | 0.00 | 0.00 | 0.00 | 67 | 1013.9 |
| 20260508142458 | 50 | 250 | 7.0 | 11.0 | 0.00 | 0.00 | 0.00 | 69 | 1013.8 |
| 20260508141958 | 50 | 252 | 7.0 | 12.0 | 0.00 | 0.00 | 0.00 | 69 | 1013.8 |
| 20260508141458 | 50 | 283 | 7.0 | 11.0 | 0.00 | 0.00 | 0.00 | 68 | 1013.8 |
| 20260508140958 | 50 | 265 | 7.0 | 11.0 | 0.00 | 0.00 | 0.00 | 69 | 1013.8 |
| 20260508140458 | 50 | 251 | 8.0 | 13.0 | 0.00 | 0.00 | 0.00 | 69 | 1013.8 |
| 20260508135959 | 50 | 224 | 8.0 | 13.0 | 0.00 | 0.00 | 0.00 | 68 | 1013.7 |
| 20260508135458 | 50 | 253 | 7.0 | 11.0 | 0.00 | 0.00 | 0.00 | 67 | 1013.8 |
| 20260508134958 | 50 | 258 | 7.0 | 10.0 | 0.00 | 0.00 | 0.00 | 67 | 1013.8 |
| 20260508134458 | 50 | 245 | 7.0 | 10.0 | 0.00 | 0.00 | 0.00 | 69 | 1013.7 |
| 20260508133458 | 50 | 239 | 6.0 | 10.0 | 0.00 | 0.00 | 0.00 | 68 | 1013.8 |
| 20260508132958 | 50 | 237 | 6.0 | 11.0 | 0.00 | 0.00 | 0.00 | 68 | 1013.9 |
| 20260508132458 | 50 | 237 | 7.0 | 11.0 | 0.00 | 0.00 | 0.00 | 69 | 1013.8 |
| 20260508131958 | 50 | 237 | 7.0 | 11.0 | 0.00 | 0.00 | 0.00 | 68 | 1013.8 |
| 20260508131459 | 50 | 213 | 6.0 | 12.0 | 0.00 | 0.00 | 0.00 | 70 | 1013.8 |
| 20260508130958 | 50 | 257 | 6.0 | 10.0 | 0.00 | 0.00 | 0.00 | 68 | 1013.7 |
| 20260508130458 | 50 | 258 | 6.0 | 10.0 | 0.00 | 0.00 | 0.00 | 71 | 1013.8 |
| 20260508125959 | 50 | 182 | 5.0 | 10.0 | 0.00 | 0.00 | 0.00 | 71 | 1013.8 |
| 20260508125458 | 51 | 50 | 4.0 | 10.0 | 0.00 | 0.00 | 0.00 | 74 | 1013.6 |